Location: Unspecified
(0.0000°N, 0.0000°E)
Time: 16:36:07
(UTC+00:00)

SR - All Passes

Search period start: 12 April 2021 00:00
Search period end: 22 April 2021 00:00
Orbit: 573 x 882 km, 66.7° (Epoch: 11 April)

Date Brightness Start Highest point End Pass type
(mag) Time Alt. Az. Time Alt. Az. Time Alt. Az.
12 Apr - 07:54:32 10° SSW 07:59:22 75° WNW 08:04:41 10° NNE daylight
12 Apr - 18:41:30 10° NNE 18:44:50 17° ENE 18:47:59 10° ESE visible
12 Apr - 20:22:20 10° NW 20:26:41 27° WSW 20:30:44 10° SSW visible
13 Apr - 07:05:12 10° S 07:09:43 40° ESE 07:14:38 10° NE daylight
13 Apr - 08:49:50 10° W 08:51:41 12° WNW 08:53:35 10° NW daylight
13 Apr - 19:31:49 10° NNW 19:37:04 76° WSW 19:41:49 10° SSE visible
14 Apr - 06:17:19 10° SE 06:20:08 15° ESE 06:23:02 10° ENE daylight
14 Apr - 07:57:29 10° SW 08:01:49 31° WNW 08:06:30 10° N daylight
14 Apr - 18:42:26 10° N 18:47:19 39° ENE 18:51:49 10° SE visible
14 Apr - 20:27:41 10° W 20:28:58 11° WSW 20:30:13 10° WSW visible
15 Apr - 07:07:10 10° SSW 07:12:03 83° WNW 07:17:25 10° NNE daylight
15 Apr - 17:54:32 10° NNE 17:57:29 15° ENE 18:00:19 10° ESE daylight
15 Apr - 19:34:54 10° NW 19:39:22 30° WSW 19:43:31 10° S visible
16 Apr - 06:17:56 10° S 06:22:24 36° ESE 06:27:14 10° NE daylight
16 Apr - 08:01:56 10° W 08:04:20 13° WNW 08:06:50 10° NW daylight
16 Apr - 18:44:31 10° NNW 18:49:44 84° WSW 18:54:30 10° SSE visible
17 Apr - 05:30:20 10° SE 05:32:49 14° ESE 05:35:23 10° ENE visible
17 Apr - 07:10:01 10° SW 07:14:30 34° WNW 07:19:20 10° N daylight
17 Apr - 17:55:15 10° N 18:00:00 35° ENE 18:04:23 10° SE daylight
17 Apr - 19:39:44 10° W 19:41:39 12° WSW 19:43:31 10° SW visible
18 Apr - 06:19:49 10° SSW 06:24:45 89° E 06:30:08 10° NNE daylight
18 Apr - 17:07:38 10° NE 17:10:09 14° ENE 17:12:34 10° E daylight
18 Apr - 18:47:29 10° NW 18:52:03 33° WSW 18:56:17 10° S visible
19 Apr - 05:30:42 10° S 05:35:06 33° ESE 05:39:51 10° NE visible
19 Apr - 07:14:10 10° WSW 07:17:01 15° WNW 07:19:58 10° NNW daylight
19 Apr - 17:57:13 10° NNW 18:02:25 88° ENE 18:07:09 10° SSE daylight
20 Apr - 04:43:24 10° SE 04:45:30 13° ESE 04:47:39 10° E visible
20 Apr - 06:22:33 10° SW 06:27:10 38° WNW 06:32:09 10° N daylight
20 Apr - 17:08:04 10° N 17:12:40 32° ENE 17:16:55 10° SE daylight
20 Apr - 18:51:59 10° W 18:54:20 13° WSW 18:56:37 10° SW visible
21 Apr - 05:32:29 10° SSW 05:37:25 82° ESE 05:42:49 10° NNE visible
21 Apr - 16:20:51 10° NE 16:22:48 12° ENE 16:24:42 10° E daylight
21 Apr - 18:00:05 10° NW 18:04:44 36° WSW 18:09:02 10° S daylight
